Valladolid Airport, Spain

9:49 PM CEST on August 17, 2017 (GMT +0200)
Villanubla

Weather History for LEVD - October, 2011

Change the Weather History Date:

Sunday, October 16, 2011

  Actual Average Record
Temperature  
Mean Temperature 60 °F -  
Max Temperature 75 °F - - ()
Min Temperature 44 °F - - ()
Degree Days  
Heating Degree Days 6    
Growing Degree Days 10 (Base 50)    
Moisture  
Dew Point 34 °F    
Average Humidity 41    
Maximum Humidity 76    
Minimum Humidity 17    
Precipitation  
Precipitation 0.00 in - - ()
Sea Level Pressure  
Sea Level Pressure 30.25 in    
Wind  
Wind Speed 7 mph ()    
Max Wind Speed 12 mph    
Max Gust Speed -    
T = Trace of Precipitation, MM = Missing Value Source: Averaged Metar Reports

Daily Weather History Graph

Daily Weather History Graph

Search for Another Location

Airport or City:

Trip Planner

Search our weather history database for the weather conditions in past years. The results will help you decide how hot, cold, wet, or windy it might be!

Date:

Astronomy

Oct. 16, 2011 Rise Set
Actual Time 8:32 AM CEST 7:37 PM CEST
Civil Twilight 8:04 AM CEST 8:05 PM CEST
Nautical Twilight 7:31 AM CEST 8:37 PM CEST
Astronomical Twilight 6:59 AM CEST 9:09 PM CEST
Moon 10:07 PM CEST (10/16) 12:40 PM CEST (10/16)
Length of Visible Light 12h 01m
Length of Day
11h 05m
Waning Gibbous, 84% of the Moon is Illuminated
Oct 16
Waning Gibbous
Oct 20
Last Quarter
Oct 26
New
Nov 2
First Quarter
Nov 10
Full

Hourly Weather History & Observations

Time (CEST) Temp. Windchill Dew Point Humidity Pressure Visibility Wind Dir Wind Speed Gust Speed Precip Events Conditions
6:00 AM 48.2 °F - 37.4 °F 66% 30.21 in - East 9.2 mph - N/A   Clear
6:30 AM 50.0 °F - 37.4 °F 62% 30.21 in - East 9.2 mph - N/A   Clear
7:00 AM 48.2 °F - 37.4 °F 66% 30.24 in - East 8.1 mph - N/A   Clear
7:30 AM 48.2 °F - 37.4 °F 66% 30.24 in - East 8.1 mph - N/A   Clear
8:00 AM 46.4 °F 44.3 °F 35.6 °F 66% 30.24 in - East 4.6 mph - N/A   Clear
8:30 AM 44.6 °F 41.4 °F 37.4 °F 76% 30.24 in - East 5.8 mph - N/A   Clear
9:00 AM 48.2 °F - 39.2 °F 71% 30.24 in - East 3.5 mph - N/A   Clear
9:30 AM 50.0 °F - 39.2 °F 66% 30.24 in - East 3.5 mph - N/A   Clear
10:00 AM 53.6 °F - 41.0 °F 62% 30.27 in - East 6.9 mph - N/A   Clear
10:30 AM 55.4 °F - 42.8 °F 63% 30.27 in - East 6.9 mph - N/A   Clear
11:00 AM 57.2 °F - 44.6 °F 63% 30.27 in - East 6.9 mph - N/A   Clear
11:30 AM 59.0 °F - 44.6 °F 59% 30.27 in - East 5.8 mph - N/A   Clear
12:00 PM 62.6 °F - 44.6 °F 52% 30.30 in - East 5.8 mph - N/A   Clear
12:30 PM 64.4 °F - 44.6 °F 49% 30.30 in - East 6.9 mph - N/A   Clear
1:00 PM 66.2 °F - 41.0 °F 40% 30.27 in - East 9.2 mph - N/A   Clear
1:30 PM 69.8 °F - 35.6 °F 28% 30.27 in - East 10.4 mph - N/A   Clear
2:00 PM 69.8 °F - 35.6 °F 28% 30.27 in - East 11.5 mph - N/A   Clear
2:30 PM 71.6 °F - 33.8 °F 25% 30.27 in - East 11.5 mph - N/A   Clear
3:00 PM 73.4 °F - 33.8 °F 23% 30.24 in - East 10.4 mph - N/A   Clear
3:30 PM 75.2 °F - 32.0 °F 21% 30.24 in - East 9.2 mph - N/A   Clear
4:00 PM 73.4 °F - 30.2 °F 20% 30.24 in - East 8.1 mph - N/A   Clear
4:30 PM 75.2 °F - 28.4 °F 18% 30.24 in - East 4.6 mph - N/A   Clear
5:00 PM 75.2 °F - 26.6 °F 17% 30.24 in - ENE 4.6 mph - N/A   Clear
5:30 PM 75.2 °F - 26.6 °F 17% 30.24 in - ENE 3.5 mph - N/A   Clear
6:00 PM 75.2 °F - 26.6 °F 17% 30.21 in - NE 4.6 mph - N/A   Clear
6:30 PM 73.4 °F - 26.6 °F 18% 30.21 in - NE 5.8 mph - N/A   Clear
7:00 PM 71.6 °F - 26.6 °F 19% 30.21 in - NE 4.6 mph - N/A   Clear
7:30 PM 68.0 °F - 26.6 °F 21% 30.24 in - NE 4.6 mph - N/A   Clear
8:00 PM 64.4 °F - 28.4 °F 26% 30.24 in - NE 3.5 mph - N/A   Clear
8:30 PM 62.6 °F - 30.2 °F 30% 30.24 in - NE 8.1 mph - N/A   Clear
9:00 PM 60.8 °F - 28.4 °F 29% 30.24 in - ENE 6.9 mph - N/A   Clear
9:30 PM 59.0 °F - 30.2 °F 34% 30.24 in - ENE 9.2 mph - N/A   Clear
10:00 PM 59.0 °F - 30.2 °F 34% 30.24 in - ENE 9.2 mph - N/A   Clear
10:30 PM 59.0 °F - 30.2 °F 34% 30.24 in - ENE 10.4 mph - N/A   Clear
11:00 PM 57.2 °F - 30.2 °F 36% 30.24 in - ENE 9.2 mph - N/A   Clear